Location: Newark
(33.5333°N, 7.5833°W)
Time: 16:47:52
(UTC+00:00)

Envisat - Visible Passes

Search period start: 01 October 2020 00:00
Search period end: 11 October 2020 00:00
Orbit: 764 x 766 km, 98.1° (Epoch: 01 October)

Date Brightness Start Highest point End Pass type
(mag) Time Alt. Az. Time Alt. Az. Time Alt. Az.
02 Oct 4.9 05:53:54 10° NNE 05:58:33 35° E 06:03:09 10° SSE visible
02 Oct 5.7 18:43:53 10° SSW 18:47:58 24° W 18:52:04 10° NW visible
03 Oct 6.2 05:18:45 10° ENE 05:21:31 15° E 05:24:16 10° SE visible
04 Oct 6.4 19:11:22 10° WSW 19:13:36 13° W 19:15:51 10° WNW visible
05 Oct 5.4 05:42:50 10° NE 05:47:08 27° E 05:51:24 10° SSE visible
05 Oct 5.2 18:32:04 10° SSW 18:36:33 31° W 18:41:03 10° NW visible
06 Oct 6.6 05:08:49 10° ENE 05:10:03 11° E 05:11:17 10° ESE visible
07 Oct 6.2 18:58:53 10° SW 19:02:09 17° W 19:05:24 10° NW visible
08 Oct 5.9 05:31:54 10° NE 05:35:42 21° E 05:39:29 10° SE visible
08 Oct 4.6 18:20:23 10° SSW 18:25:09 41° W 18:29:55 10° NNW visible
10 Oct 4.7 05:56:31 10° NNE 06:01:16 39° E 06:05:59 10° SSE visible
10 Oct 5.8 18:46:48 10° SW 18:50:42 22° W 18:54:36 10° NW visible
